Showing default

DB-CHARMS-ND, 68455

Orbit data source: Space-Track

DB-CHARMS-ND, 68455 is a payload satellite owned by NearSpaceLaunch (US) in SSO that was launched on Mon, 30 Mar 2026 UTC via an FALCON 9 launch vehicle from the Air Force Western Test Range (AFWTR). Payload-class satellites include a variety of spacecraft equipped with specific instruments for various scientific and technological missions. These include communications satellites like Starlink; space stations such as the ISS; scientific satellites like the Hubble; Earth observation satellites from companies like Planet Labs, Umbra, and HawkEye 360; GPS; miniature CubeSats for education and research; and military/defense satellites.

Loading next visibility...
Identifier
68455, 2026-067AR
Orbit
SSO
Country
Flag of USUS
Related business
Manufacturer
NearSpaceLaunch
Mission
Operational Commercial Technology
Bus & Motor
THINSAT 0.5U, Unknown motor
Mass
0.5 kg wet, 0.5 kg dry
Launch date (UTC)
2026-03-30 (6 months ago)
Launch vehicle
FALCON 9
Launch site
Air Force Western Test Range (AFWTR)
Object type
Payload
Rocket body
Debris
Shape & HBR
Box + 2 Pan, 0.2 m
Radar Cross Section
0.017 m², Medium (>0.1 m² and < 1m²)

Expand to show TLE details & history
Last TLE update: 11 hours ago

TLE from 11 hours ago
0 DB-CHARMS-ND
1 68455U 26067AR  26263.12986817  .00002865  00000-0  14385-3 0  9995
2 68455  97.4687 220.1638 0007470  92.5686 267.6403 15.18083474 26330
Epoch: 2026-09-20T03:07Z
TLE epoch observation values (Epoch: 2026-09-20T03:07:00.609Z)
Latitude
-0.00006°
Longitude
174.3828°
Altitude
514.935 km
Speed
7.606 km/s
True Right ascension
14h 40m 39s
True Declination
0° 00' 00"
Sunlit
Object was in daylight at epoch
Visualization orbit readout
Latitude
Unknown
Longitude
Unknown
Altitude
Unknown
Speed
Unknown
Apparent Right ascension
Unknown
Apparent Declination
Unknown
Sunlit
N/A
Visualization observer readout
Local Sidereal Time
06:54:48
Azimuth
Unknown
Elevation
Unknown
Doppler factor
Unknown
Orbital elements
Apogee altitude
513.749 km
Perigee altitude
503.46 km
Semi-major axis
6,886.741 km
Eccentricity
0.00075
Inclination
97.4687°
RAAN
220.1638°
Arg. of periapsis
92.5686°
True anomaly
267.55478°
Mean anomaly
267.6403°
Eccentric anomaly
267.59754°
Mean motion
3.79772 °/min
Orbital period
94.79 mins
BSTAR
0.00014385
Loading maneuver chart data...
Computing Atmospheric mass density...
Loading historical data...
Loading historical data...
Loading historical data...
Loading historical data...
Loading historical data...
Loading historical data...
Loading historical data...

Documentation

Showing up to 5 results
|